Weather History for Middleton, WI

Change the Weather History Date:

Monday, December 9, 2013

  Actual Average (KMSN) Record (KMSN)
Temperature  
Mean Temperature 8 °F 25 °F  
Max Temperature 17 °F 32 °F 60 °F (1946)
Min Temperature -2 °F 18 °F -22 °F (1876)
Degree Days  
Heating Degree Days 58 40  
Month to date heating degree days 346  
Since 1 July heating degree days 1925  
Cooling Degree Days 0 0  
Month to date cooling degree days 0  
Year to date cooling degree days 568  
Moisture  
Dew Point 2 °F    
Average Humidity 71    
Maximum Humidity 86    
Minimum Humidity 52    
Precipitation  
Precipitation 0.01 in 0.06 in 0.73 in (1879)
Month to date precipitation 0.63  
Year to date precipitation 33.37  
Snow  
Snow 0.00 in 0.40 in 7.00 in (2009)
Month to date snowfall 3.7  
Since 1 July snowfall 7.8  
Snow Depth -    
Sea Level Pressure  
Sea Level Pressure 30.04 in    
Wind  
Wind Speed 8 mph (WSW)    
Max Wind Speed 21 mph    
Max Gust Speed 28 mph    
Visibility 7 miles    
Events      
T = Trace of Precipitation, MM = Missing Value Source: NWS Daily Summary

Daily Weather History Graph

Daily Weather History Graph

Search for Another Location

Airport:

Trip Planner

Search our weather history database for the weather conditions in past years. The results will help you decide how hot, cold, wet, or windy it might be!

Date:

Astronomy

Dec. 09, 2013 Rise Set
Actual Time 7:18 AM CST 4:22 PM CST
Civil Twilight 6:45 AM CST 4:55 PM CST
Nautical Twilight 6:10 AM CST 5:30 PM CST
Astronomical Twilight 5:35 AM CST 6:05 PM CST
Moon 12:02 PM CST (12/9) No Moon Set
Length of Visible Light 10h 09m
Length of Day
9h 04m
Waxing Crescent, 51% of the Moon is Illuminated
Dec 9
Waxing Crescent
Dec 17
Full
Dec 25
Last Quarter
Jan 1
New
Jan 7
First Quarter

Hourly Weather History & Observations

Time (CST) Temp. Windchill Dew Point Humidity Pressure Visibility Wind Dir Wind Speed Gust Speed Precip Events Conditions
12:15 AM 17.6 °F 12.3 °F 14.0 °F 86% 29.93 in 4.0 mi NW 3.5 mph - N/A   Overcast
12:35 AM 17.6 °F 10.7 °F 13.6 °F 84% 29.93 in 5.0 mi NW 4.6 mph - N/A   Overcast
12:55 AM 17.4 °F 12.1 °F 13.5 °F 84% 29.92 in 5.0 mi WNW 3.5 mph - N/A   Overcast
1:15 AM 17.4 °F 12.1 °F 13.5 °F 84% 29.92 in 5.0 mi WNW 3.5 mph - N/A   Overcast
1:35 AM 17.4 °F 12.1 °F 13.6 °F 85% 29.91 in 2.5 mi WNW 3.5 mph - N/A   Overcast
1:55 AM 17.2 °F 10.2 °F 13.6 °F 86% 29.93 in 2.5 mi West 4.6 mph - N/A   Overcast
2:15 AM 17.1 °F 8.7 °F 13.1 °F 84% 29.93 in 2.0 mi West 5.8 mph - N/A   Overcast
2:35 AM 15.6 °F 5.9 °F 12.0 °F 86% 29.93 in 2.5 mi West 6.9 mph - N/A   Overcast
2:55 AM 15.8 °F 10.2 °F 12.2 °F 86% 29.93 in 2.0 mi West 3.5 mph - N/A   Overcast
3:15 AM 16.3 °F 5.7 °F 12.7 °F 86% 29.93 in 2.0 mi West 8.1 mph - N/A   Overcast
3:35 AM 15.8 °F 4.2 °F 11.8 °F 84% 29.94 in 4.0 mi West 9.2 mph - N/A   Overcast
3:55 AM 14.5 °F 3.6 °F 10.4 °F 84% 29.94 in 7.0 mi West 8.1 mph - N/A   Mostly Cloudy
4:15 AM 13.6 °F 1.6 °F 10.0 °F 86% 29.94 in 7.0 mi West 9.2 mph - N/A   Clear
4:35 AM 13.3 °F 2.0 °F 9.1 °F 84% 29.94 in 10.0 mi WNW 8.1 mph - N/A   Clear
4:55 AM 12.4 °F -1.6 °F 8.4 °F 84% 29.94 in 10.0 mi West 11.5 mph - N/A   Clear
5:15 AM 11.8 °F -0.7 °F 7.9 °F 84% 29.95 in 10.0 mi West 9.2 mph - N/A   Clear
5:35 AM 11.7 °F 1.1 °F 7.5 °F 83% 29.95 in 10.0 mi West 6.9 mph - N/A   Clear
5:55 AM 10.9 °F -0.8 °F 7.0 °F 84% 29.95 in 10.0 mi West 8.1 mph - N/A   Clear
6:15 AM 10.4 °F 2.2 °F 6.3 °F 83% 29.96 in 10.0 mi West 4.6 mph - N/A   Clear
6:34 AM 8.6 °F 0.1 °F 5.0 °F 85% 29.97 in 10.0 mi West 4.6 mph - N/A   Clear
6:35 AM 9.3 °F 1.0 °F 5.5 °F 85% 29.97 in 10.0 mi West 4.6 mph - N/A   Clear
6:55 AM 10.4 °F -0.4 °F 7.0 °F 86% 29.99 in 10.0 mi WSW 6.9 mph - N/A   Clear
7:15 AM 9.9 °F -1.1 °F 5.9 °F 84% 30.00 in 10.0 mi West 6.9 mph - N/A   Clear
7:35 AM 10.0 °F 0.4 °F 6.3 °F 85% 30.00 in 10.0 mi WSW 5.8 mph - N/A   Clear
7:55 AM 11.1 °F -0.6 °F 6.8 °F 83% 30.01 in 10.0 mi West 8.1 mph - N/A   Scattered Clouds
8:15 AM 12.0 °F 1.5 °F 7.5 °F 82% 30.02 in 5.0 mi West 6.9 mph - N/A   Overcast
8:35 AM 12.4 °F 0.9 °F 7.7 °F 82% 30.02 in 2.5 mi West 8.1 mph - N/A   Overcast
8:55 AM 12.7 °F 1.4 °F 7.7 °F 80% 30.03 in 2.5 mi West 8.1 mph - N/A   Overcast
9:15 AM 13.1 °F 2.8 °F 7.7 °F 79% 30.03 in 4.0 mi WSW 6.9 mph - N/A   Overcast
9:35 AM 13.6 °F 2.5 °F 7.7 °F 77% 30.02 in 10.0 mi WSW 8.1 mph - N/A   Mostly Cloudy
9:55 AM 14.0 °F 0.5 °F 7.2 °F 74% 30.02 in 10.0 mi West 11.5 mph - N/A   Scattered Clouds
10:15 AM 15.6 °F 4.0 °F 7.2 °F 69% 30.02 in 10.0 mi West 9.2 mph 17.3 mph N/A   Scattered Clouds
10:35 AM 16.2 °F 1.9 °F 6.3 °F 65% 30.02 in 0.2 mi West 13.8 mph - N/A   Mostly Cloudy
10:55 AM 16.7 °F 2.0 °F 5.9 °F 63% 30.02 in 0.2 mi WSW 15.0 mph 19.6 mph N/A   Mostly Cloudy
11:15 AM 17.2 °F 2.2 °F 5.2 °F 59% 30.02 in 1.0 mi WSW 16.1 mph 20.7 mph N/A   Unknown
11:35 AM 17.1 °F 3.6 °F 5.5 °F 61% 30.01 in 1.2 mi SW 12.7 mph 19.6 mph N/A   Scattered Clouds
11:55 AM 16.0 °F 2.3 °F 5.0 °F 62% 30.00 in 0.5 mi SW 12.7 mph 18.4 mph N/A   Unknown
12:15 PM 16.3 °F 1.6 °F 4.6 °F 60% 30.01 in 0.8 mi WSW 15.0 mph 20.7 mph N/A   Unknown
12:35 PM 15.8 °F -0.6 °F 4.1 °F 60% 30.02 in 0.2 mi WSW 18.4 mph 27.6 mph N/A   Unknown
12:55 PM 15.4 °F -0.6 °F 3.6 °F 59% 30.02 in 0.5 mi WSW 17.3 mph 24.2 mph N/A   Unknown
1:15 PM 14.9 °F -2.3 °F 3.0 °F 59% 30.02 in 4.0 mi WSW 19.6 mph 24.2 mph N/A   Clear
1:35 PM 14.7 °F 0.7 °F 2.1 °F 57% 30.03 in 2.0 mi West 12.7 mph 23.0 mph N/A   Clear
1:55 PM 14.4 °F -1.0 °F 1.0 °F 56% 30.04 in 7.0 mi WSW 15.0 mph 20.7 mph N/A   Clear
2:15 PM 13.1 °F -5.1 °F -0.2 °F 55% 30.04 in 7.0 mi WSW 20.7 mph 24.2 mph N/A   Clear
2:35 PM 12.7 °F -3.0 °F -1.3 °F 54% 30.05 in 7.0 mi WSW 15.0 mph 21.9 mph N/A   Clear
2:55 PM 12.0 °F -5.6 °F -2.0 °F 53% 30.06 in 10.0 mi West 18.4 mph 23.0 mph N/A   Clear
3:15 PM 11.3 °F -4.9 °F -3.1 °F 52% 30.08 in 10.0 mi West 15.0 mph 20.7 mph N/A   Clear
3:35 PM 10.6 °F -5.2 °F -4.0 °F 52% 30.09 in 10.0 mi WSW 13.8 mph 18.4 mph N/A   Clear
3:55 PM 9.5 °F -4.4 °F -4.5 °F 53% 30.10 in 10.0 mi West 10.4 mph - N/A   Clear
4:15 PM 8.4 °F -8.6 °F -5.3 °F 54% 30.12 in 10.0 mi West 15.0 mph - N/A   Clear
4:35 PM 7.5 °F -3.9 °F -5.8 °F 55% 30.13 in 10.0 mi SW 6.9 mph 17.3 mph N/A   Clear
4:55 PM 5.5 °F -10.2 °F -5.8 °F 60% 30.13 in 10.0 mi SW 11.5 mph - N/A   Clear
5:15 PM 4.8 °F -10.2 °F -6.3 °F 60% 30.14 in 10.0 mi WSW 10.4 mph - N/A   Clear
5:35 PM 4.1 °F -12.0 °F -6.7 °F 61% 30.15 in 10.0 mi WSW 11.5 mph - N/A   Clear
5:55 PM 3.7 °F -13.2 °F -7.2 °F 60% 30.15 in 10.0 mi WSW 12.7 mph 17.3 mph N/A   Clear
6:15 PM 3.7 °F -12.4 °F -7.6 °F 59% 30.15 in 10.0 mi WSW 11.5 mph 17.3 mph N/A   Clear
6:35 PM 3.2 °F -9.1 °F -8.0 °F 60% 30.15 in 10.0 mi WSW 6.9 mph - N/A   Clear
6:55 PM 2.1 °F -9.0 °F -8.3 °F 62% 30.16 in 10.0 mi SW 5.8 mph - N/A   Clear
7:15 PM 1.8 °F -13.1 °F -8.0 °F 64% 30.15 in 10.0 mi WSW 9.2 mph 16.1 mph N/A   Clear
7:35 PM 1.0 °F -12.9 °F -8.3 °F 65% 30.16 in 10.0 mi WSW 8.1 mph - N/A   Clear
7:55 PM 1.0 °F -11.7 °F -8.5 °F 64% 30.17 in 10.0 mi WSW 6.9 mph - N/A   Clear
8:15 PM 0.3 °F -13.8 °F -8.7 °F 66% 30.16 in 10.0 mi West 8.1 mph - N/A   Clear
8:35 PM 0.1 °F -15.1 °F -8.7 °F 66% 30.16 in 10.0 mi West 9.2 mph - N/A   Clear
8:55 PM -0.2 °F -13.2 °F -9.0 °F 66% 30.16 in 10.0 mi WSW 6.9 mph - N/A   Clear
9:15 PM -0.6 °F -13.6 °F -9.0 °F 67% 30.15 in 10.0 mi West 6.9 mph - N/A   Clear
9:35 PM -1.1 °F -11.2 °F -9.2 °F 69% 30.14 in 10.0 mi WSW 4.6 mph - N/A   Clear
9:55 PM -1.3 °F -13.1 °F -9.2 °F 69% 30.14 in 10.0 mi West 5.8 mph - N/A   Clear
10:15 PM -2.6 °F -14.6 °F -9.9 °F 71% 30.13 in 10.0 mi West 5.8 mph - N/A   Clear
10:35 PM -2.2 °F -16.8 °F -9.4 °F 71% 30.13 in 10.0 mi West 8.1 mph - N/A   Clear
10:55 PM -1.5 °F -14.7 °F -9.4 °F 69% 30.13 in 10.0 mi WSW 6.9 mph - N/A   Clear
11:15 PM -1.5 °F -14.7 °F -9.0 °F 70% 30.13 in 10.0 mi WSW 6.9 mph - N/A   Clear
11:35 PM -1.5 °F -9.5 °F -8.7 °F 71% 30.13 in 10.0 mi SSW 3.5 mph - N/A   Clear
11:55 PM -1.5 °F -11.6 °F -8.5 °F 72% 30.12 in 10.0 mi SW 4.6 mph - N/A   Clear